SCP
0 0 0 0 0 0 0 0 0 0 0 0 0 0 0 0 0 0 0 0 0 -0 0 -0 -0 -0 -0 -0 0 0 0 0 0 0 0 -0 0 0 -0 -0 -0 0 0 0 0 0 0 0 0
0 0 0 0 0 0 0 0 0 0 0 0 0 0 0 0 0 0 0 0 0 0 0 -0 0 -0 -0 -0 0 0 0 0 0 0 0 0 0 0 0 0 0 0 0 0 0 0 0 0 0
0 0 0 0 0 0 0 0 0 0 0 0 0 0 0 0 0 0 0 0 0 0 0 0 0 -0 -0 0 0 0 0 0 0 0 -0 -0 -0 0 0 0 0 0 0 0 0 0 0 0 0
0 0 0 0 0 0 0 0 0 0 0 0 0 0 0 0 0 0 0 0 0 0 0 0 0 0 -0 0 0 0 0 0 0 0 -0 -0 -0 -0 0 0 0 0 0 0 0 0 0 0 0
0 0 0 0 0 0 0 0 0 0 0 0 0 0 0 0 0 0 0 0 0 0 0 0 0 0 0 0 0 0 0 0 0 -0 -0 -0 -0 -0 -0 0 0 0 0 0 0 0 0 0 0
0 0 0 0 0 0 0 0 0 0 0 0 0 0 0 0 0 0 0 0 0 0 0 0 0 0 0 0 0 0 0 0 -0 -0 -0 -0 -0 -0 -0 -0 -0 -0 0 -0 -0 -0 0 0 0
0 0 0 0 0 0 0 0 0 0 0 0 0 0 0 0 0 0 0 0 0 0 0 0 0 0 0 0 0 0 0 0 0 -0 -0 -0 -0 -0 -0 -0 0 0 -0 -0 -0 -0 0 0 0
0 0 0 0 0 0 0 0 0 0 0 0 0 0 0 0 0 0 0 0 0 0 0 0 0 0 0 0 0 0 0 0 0 0 -0 -0 -0 -0 -0 0 0 0 0 0 0 0 0 0 0
0 0 0 0 0 0 0 0 0 0 0 0 0 0 0 0 0 0 0 0 0 0 0 0 0 0 0 0 0 0 0 0 0 0 0 0 -0 -0 -0 0 0 0 0 0 0 0 0 0 0
0 0 0 0 0 0 0 0 0 0 0 0 0 0 0 0 0 0 0 0 0 0 0 0 0 0 0 0 0 0 0 0 0 0 0 0 0 0 0 0 0 0 0 0 0 0 0 0 0
0 0 0 0 0 0 0 0 0 0 0 0 0 0 0 0 0 0 0 0 0 0 0 0 0 0 0 0 0 0 0 0 0 0 0 0 0 0 0 0 0 0 0 0 0 0 0 0 0
0 0 0 0 0 0 0 0 0 0 0 0 0 0 0 0 0 0 0 0 0 0 0 0 0 0 0 0 0 0 0 0 0 0 0 0 0 0 0 0 0 0 0 0 0 0 0 0 0
0 0 0 0 0 0 0 0 0 0 0 0 0 0 0 0 0 0 0 0 0 0 0 0 0 1 0 0 0 0 0 0 0 0 0 0 0 0 0 0 0 0 0 0 0 0 0 0 0
0 0 0 0 0 0 0 0 0 0 0 0 0 0 0 0 0 0 0 0 0 0 0 0 0 0 1 1 0 0 0 0 0 0 0 0 0 0 0 0 0 0 0 0 0 0 0 0 0
0 0 0 0 0 0 0 0 0 0 0 0 0 0 0 0 0 0 0 0 0 0 0 0 0 1 1 1 0 0 0 0 0 0 0 0 0 0 0 0 0 0 0 0 0 0 0 0 0
0 0 0 0 0 0 0 0 0 0 0 0 0 0 0 0 0 0 0 0 0 0 0 0 0 0 1 1 1 0 0 0 0 0 0 0 0 0 0 0 0 0 0 0 0 0 0 0 0
0 0 0 0 0 0 0 0 0 0 0 0 0 0 0 0 0 0 0 0 0 0 0 0 0 0 1 0 0 0 0 0 0 0 0 0 0 0 0 0 0 0 0 0 0 0 0 0 0
0 0 0 0 0 0 0 0 0 0 0 0 0 0 0 0 0 0 0 0 0 0 0 0 0 0 0 0 0 0 0 0 0 0 0 0 0 0 0 0 0 0 0 0 0 0 0 0 0
0 0 0 0 0 0 0 0 0 0 0 0 0 0 0 0 0 0 0 0 0 0 0 0 0 0 0 0 0 0 0 0 0 0 0 0 0 0 0 0 0 0 0 0 0 0 0 0 0
0 0 0 0 0 0 0 -0 0 0 0 0 0 0 0 0 0 0 0 0 0 0 0 0 0 0 0 0 0 0 0 0 0 0 0 0 0 0 0 0 0 0 0 0 0 0 -0 -0 -0
0 0 0 0 0 0 0 -0 -0 -0 0 0 0 0 0 0 0 0 0 0 0 0 0 0 0 0 0 0 0 0 0 0 0 0 0 0 0 0 0 0 0 0 0 0 0 0 0 0 -0
0 0 0 0 0 0 0 0 0 0 0 0 0 0 0 0 0 0 0 0 0 0 0 0 0 0 0 0 0 0 0 0 0 0 0 0 0 0 0 0 0 0 0 0 0 -0 -0 -0 0
0 0 0 0 0 0 0 0 0 0 0 0 0 0 0 0 0 0 0 0 0 0 0 0 0 0 0 0 0 0 0 0 0 0 0 0 0 0 0 0 0 0 0 0 0 0 0 0 -0
0 0 0 0 0 0 0 0 -0 -0 -0 -0 0 0 0 0 0 0 0 0 0 0 0 0 0 0 0 0 0 0 0 0 0 0 0 0 0 0 0 0 0 0 0 0 0 0 0 0 0
0 0 0 0 0 0 0 0 0 0 0 0 0 0 0 0 0 0 0 0 0 0 0 0 0 0 0 0 0 0 0 0 0 0 0 0 0 0 0 0 0 0 0 0 0 0 0 0 0
0 0 0 0 0 0 0 0 0 -0 0 -0 0 0 0 0 0 0 0 0 0 0 0 0 0 0 0 0 0 0 0 0 0 0 0 0 0 0 0 0 0 0 0 0 0 0 0 0 0
0 0 0 0 0 0 0 0 0 0 -0 -0 0 0 0 -0 0 0 0 0 0 0 0 0 0 0 0 0 0 0 0 0 0 0 0 0 0 0 0 0 0 0 0 0 0 0 0 0 0
0 0 0 0 0 0 0 0 0 0 -0 0 0 0 0 0 0 0 0 0 0 0 0 0 0 0 0 0 0 0 0 0 0 0 0 0 0 0 0 0 0 0 0 0 0 0 0 0 0
0 0 0 0 0 0 0 0 0 -0 0 0 0 -0 0 0 0 0 0 0 0 0 0 0 0 0 0 0 0 0 0 0 0 0 0 0 0 0 0 0 0 0 0 0 0 0 0 0 0
0 0 0 0 0 0 0 0 0 0 0 -0 -0 -0 0 0 0 0 0 0 0 0 0 0 0 0 0 0 0 0 0 0 0 0 0 0 0 0 0 0 0 0 0 0 0 0 0 0 0
Wind_Speed_500mb
23 23 23 14 1 4 4 7 4 7 2 4 18 8 5 5 7 4 8 27 20 22 27 31 28 26 17 12 8 3 2 5 5 19 14 11 12 10 7 4 3 6 5 8 6 6 9 14 19
22 19 12 2 3 2 6 6 6 3 15 26 9 6 5 4 7 9 22 21 23 23 26 28 31 25 18 10 8 3 2 4 6 14 17 15 15 10 12 16 7 14 11 12 12 12 8 3 6
19 13 5 4 5 12 8 10 8 9 20 5 7 5 5 5 5 9 7 20 21 27 27 28 27 23 17 11 9 4 1 2 5 18 19 17 16 15 20 14 15 15 16 15 16 17 14 13 9
7 1 5 4 18 10 9 4 4 12 7 7 10 11 7 8 6 15 10 24 28 28 28 29 27 22 16 13 9 4 1 2 7 14 23 17 13 11 6 6 6 9 12 13 14 14 13 11 9
10 5 3 5 14 7 8 11 11 8 11 12 13 6 6 7 11 8 12 19 20 27 29 29 28 22 17 14 9 5 2 3 9 19 25 20 11 9 14 8 5 8 7 8 10 9 8 7 6
9 7 4 16 23 5 10 20 6 8 16 19 6 9 6 6 6 9 15 19 19 23 26 25 27 25 21 15 11 6 5 6 11 20 23 22 17 12 14 12 6 6 5 6 9 10 11 11 10
11 7 10 9 13 9 9 13 10 15 10 14 8 4 4 4 6 8 15 19 20 24 25 24 25 25 22 15 12 8 8 9 13 17 19 20 19 14 12 10 7 5 3 5 7 8 9 9 9
11 6 9 11 18 19 7 11 13 13 9 7 8 7 4 3 5 6 14 21 22 24 26 23 22 24 24 19 16 9 9 11 14 13 12 14 17 18 15 11 9 7 5 1 2 6 7 10 15
13 4 13 16 16 11 3 3 4 6 10 8 5 13 6 6 9 12 15 23 28 27 26 28 26 24 24 23 19 14 11 11 11 9 7 9 14 16 16 14 12 8 4 3 5 8 12 16 20
10 8 16 12 14 8 9 9 11 7 15 21 30 18 17 16 17 20 21 22 26 28 31 31 31 27 26 27 25 19 16 15 12 9 9 9 15 17 16 14 11 8 7 9 10 12 18 19 22
7 14 7 7 11 6 7 15 16 13 13 22 23 28 20 20 22 24 27 27 22 18 26 30 32 32 27 28 28 25 21 19 16 14 13 12 13 15 14 12 10 9 9 8 12 17 21 25 29
6 15 15 14 23 16 9 15 13 18 26 22 22 27 32 29 26 29 29 30 23 19 19 21 28 33 30 28 31 27 24 21 18 17 16 15 13 13 12 12 10 7 6 12 17 20 26 31 29
6 5 11 13 16 22 25 33 33 35 45 46 45 48 46 41 35 32 30 29 29 28 23 25 26 30 34 33 34 31 27 23 20 20 21 17 15 13 13 12 6 9 10 16 23 25 28 32 35
4 9 15 20 25 28 29 43 25 46 45 56 53 51 47 39 38 39 40 36 36 34 32 33 32 34 36 37 36 32 29 26 22 22 22 19 16 13 13 12 9 11 16 21 23 27 33 38 38
7 10 16 20 21 16 15 26 29 67 59 62 66 66 67 57 44 48 45 43 37 36 38 42 44 41 42 42 38 35 33 28 22 20 21 21 17 16 15 12 12 15 16 19 27 33 37 37 32
4 5 6 5 8 17 24 26 15 4 29 51 65 71 65 67 62 53 50 54 45 41 42 46 51 49 47 49 43 39 34 32 27 25 23 24 19 17 16 15 14 12 15 24 31 34 35 32 27
6 7 10 11 9 5 24 12 10 32 23 28 38 48 55 53 59 61 56 55 55 50 52 50 50 49 48 52 47 40 38 34 33 29 28 25 18 18 17 16 11 12 18 25 29 31 29 26 23
8 7 9 10 5 7 22 35 31 40 47 48 45 52 47 47 49 48 51 50 45 47 48 48 45 44 49 55 49 45 42 40 39 33 32 28 19 13 17 15 10 12 17 22 24 26 29 31 31
2 8 15 10 19 23 26 41 35 42 35 40 45 51 57 65 58 53 52 48 46 42 44 52 51 50 54 60 57 51 48 46 44 41 37 30 24 19 20 12 7 11 17 22 25 27 30 33 37
21 30 34 22 15 19 24 53 34 34 45 54 56 53 57 64 61 61 58 56 49 42 48 51 53 52 58 60 62 51 48 49 47 48 42 33 27 26 19 9 7 13 20 25 27 30 34 38 41
26 32 31 35 19 27 31 50 35 36 61 62 67 73 75 70 77 71 67 54 52 51 49 52 52 56 60 62 62 48 47 51 52 49 42 37 34 27 17 9 9 14 20 26 31 33 34 35 37
30 15 22 26 13 15 4 20 15 13 20 18 35 52 61 68 80 79 71 61 50 51 51 51 51 55 58 61 53 51 50 53 51 48 44 42 37 27 18 11 9 14 21 27 32 36 37 37 34
11 11 14 17 19 16 27 14 13 5 9 18 20 48 60 64 69 74 76 62 52 54 57 55 51 55 59 55 49 56 45 52 49 53 50 48 38 28 18 11 11 16 22 27 33 35 36 36 36
3 6 12 5 11 20 21 21 34 14 15 8 14 41 51 56 56 57 62 67 59 57 58 55 54 56 62 57 52 53 45 52 56 57 56 47 36 26 17 12 13 18 23 29 33 35 36 37 36
13 5 6 10 14 17 15 22 38 20 37 31 34 44 41 39 46 45 53 66 62 60 64 61 57 59 68 60 58 51 47 54 54 59 56 46 35 25 17 16 16 20 26 31 33 35 36 35 36
19 18 10 10 10 9 6 16 15 21 35 49 38 50 52 56 48 39 44 61 62 64 67 65 60 62 69 67 63 49 50 52 53 55 50 40 30 22 19 18 19 23 28 32 35 36 36 37 37
8 21 22 11 22 10 8 15 18 25 24 9 19 34 50 55 53 48 38 56 63 68 70 67 62 64 69 68 56 55 55 52 56 55 46 36 27 22 20 20 22 26 30 33 36 37 37 37 38
14 2 6 9 10 12 12 15 22 15 13 9 11 24 54 56 47 47 44 48 63 71 71 64 60 66 67 61 57 55 54 55 56 50 41 33 26 23 20 21 24 28 32 35 37 37 37 37 40
16 11 11 5 7 7 9 12 10 24 10 7 10 34 54 66 48 46 51 48 61 73 71 66 65 69 65 62 58 58 59 57 52 44 37 30 25 22 21 22 26 29 33 36 37 37 38 40 44
32 26 33 17 12 9 6 26 20 17 6 8 22 38 57 62 41 40 56 55 62 69 68 70 73 69 65 59 57 57 58 55 48 41 34 29 25 21 21 24 26 30 34 36 37 37 41 46 49
Wind_Direction_500mb
298 311 324 320 29 56 250 261 281 305 280 271 297 213 220 185 195 218 197 160 154 163 170 158 160 171 181 185 168 152 11 5 69 137 140 134 135 189 192 203 50 21 4 4 30 172 201 202 210
296 310 327 68 129 220 257 251 227 245 302 301 275 240 240 232 236 293 152 161 155 165 172 157 164 173 186 190 181 177 331 3 87 136 160 106 109 86 101 105 52 41 39 51 59 73 70 130 203
296 311 304 112 149 217 214 210 201 292 341 303 293 241 266 284 219 214 193 171 168 164 175 170 171 181 186 191 192 203 322 71 135 130 130 116 105 104 104 75 43 30 42 56 64 73 77 81 90
251 231 90 192 227 236 216 223 228 335 329 352 331 283 263 243 190 172 177 183 172 169 175 180 177 182 186 180 184 200 215 134 155 145 133 129 130 128 118 10 11 13 30 46 53 60 68 72 73
202 156 178 232 247 249 246 257 284 301 297 287 330 278 258 257 232 214 195 179 177 179 176 182 181 189 188 180 187 189 171 161 157 150 141 133 138 176 165 213 326 352 19 35 45 45 51 51 44
151 137 160 234 242 245 256 253 254 254 280 286 240 261 256 269 245 217 174 177 182 189 183 183 183 187 187 191 187 187 171 147 146 156 155 154 162 163 172 190 251 314 343 13 18 18 27 29 26
150 139 203 221 251 266 245 265 237 247 264 265 224 235 264 305 210 190 190 184 184 189 194 188 187 189 193 196 198 193 177 153 140 150 166 175 178 181 165 186 225 262 298 343 21 40 33 22 350
172 154 167 217 235 261 238 221 246 217 270 261 201 228 248 77 228 235 208 197 194 195 198 199 200 196 201 207 210 209 192 170 149 151 167 187 197 197 197 201 216 223 239 263 47 32 332 321 316
169 159 221 220 179 220 222 163 204 351 280 316 278 275 261 255 269 238 224 218 208 206 204 208 212 208 212 213 213 214 198 193 166 177 182 193 199 197 197 208 204 218 222 232 281 309 311 311 312
187 194 220 194 186 217 257 258 272 306 284 289 303 295 285 281 266 258 245 232 234 227 221 215 220 221 220 222 215 218 211 208 212 215 216 211 195 194 194 202 211 215 231 262 282 307 313 315 313
204 240 192 197 190 218 276 282 265 246 258 256 287 285 302 290 264 250 250 239 252 248 242 233 231 229 229 230 223 223 218 217 223 225 225 205 190 196 206 214 213 226 257 274 295 306 309 311 315
225 255 246 241 258 268 230 257 268 244 244 267 247 289 296 302 277 262 254 242 243 243 255 250 243 238 235 232 228 228 225 223 227 225 212 203 201 202 201 212 211 222 272 292 295 299 306 312 315
224 271 264 261 269 264 266 247 251 253 258 260 267 277 283 283 272 267 265 245 241 247 256 260 256 246 235 235 227 223 222 221 229 214 205 208 210 216 218 201 210 244 276 293 301 305 306 308 307
228 269 272 282 266 258 255 261 247 255 257 259 260 263 267 273 265 267 256 253 257 265 265 266 261 256 240 234 228 221 217 215 220 211 210 212 208 212 211 229 232 270 293 297 303 306 308 308 310
265 292 288 241 238 243 265 263 241 253 248 249 251 256 260 261 262 261 256 256 263 262 270 266 262 260 241 231 223 216 209 214 215 210 205 204 213 230 222 219 255 281 291 305 310 312 312 311 314
255 236 262 278 227 240 201 256 246 160 252 246 251 251 252 255 254 257 257 254 259 260 268 263 257 253 234 223 218 215 211 216 212 209 201 210 217 217 222 235 253 274 301 312 313 312 310 314 321
224 256 232 311 207 258 206 272 262 260 275 258 258 254 255 255 249 248 252 256 256 256 263 258 254 241 222 213 215 211 213 217 205 207 207 212 216 225 220 240 245 287 314 317 319 321 323 334 345
198 225 241 216 324 346 287 277 282 274 275 281 283 280 269 262 256 254 254 262 263 256 255 249 243 225 212 209 204 211 206 210 201 202 204 209 206 223 213 219 254 303 327 334 337 340 343 348 352
318 265 260 290 298 320 278 279 275 275 266 268 271 273 275 271 268 260 254 260 263 262 257 254 235 220 210 204 200 206 204 202 194 197 198 199 198 211 201 221 270 326 343 351 358 354 349 347 352
252 265 270 277 255 274 293 286 276 267 261 255 257 258 262 267 265 261 255 257 260 264 260 244 228 217 207 206 202 199 205 198 199 194 188 192 194 195 201 221 295 332 352 358 356 354 353 354 356
243 253 266 272 297 278 288 280 270 253 251 250 249 250 250 250 260 258 255 254 253 258 253 228 219 213 205 205 193 191 197 191 189 186 185 181 194 194 201 232 294 338 351 350 352 353 354 357 355
252 203 238 257 267 266 166 290 263 271 266 257 259 248 248 249 254 253 255 251 247 247 233 221 214 210 210 203 194 205 200 200 198 198 187 194 187 196 206 239 298 331 340 347 349 350 348 350 352
246 186 212 231 242 272 245 261 291 312 273 270 251 251 247 251 252 250 247 240 240 235 224 215 212 211 207 203 202 203 213 201 196 189 194 189 189 196 213 245 292 320 335 341 345 344 343 344 344
124 305 275 228 232 246 231 211 275 252 254 279 278 268 261 252 249 257 248 234 235 224 214 210 211 208 203 205 204 205 207 194 190 192 189 188 192 201 220 252 286 314 329 337 338 337 339 338 337
176 190 252 224 212 242 192 196 249 293 293 259 277 277 278 280 268 261 244 228 221 214 208 206 207 206 199 201 205 197 197 194 195 194 191 192 196 207 228 256 286 311 324 330 332 333 333 332 330
189 187 221 245 233 241 177 227 251 229 254 251 273 286 287 285 270 262 243 223 214 207 204 202 203 200 194 198 198 196 195 196 197 194 193 195 201 216 239 262 288 308 319 324 327 329 329 328 327
181 211 235 260 263 265 236 265 276 258 267 306 312 328 316 297 273 256 253 220 212 204 201 200 195 190 190 193 193 195 195 198 193 191 194 201 210 228 247 268 292 306 315 320 324 326 325 324 322
198 39 175 195 241 240 238 248 240 287 229 308 316 336 341 325 275 251 248 223 210 203 197 191 189 182 189 188 192 188 188 189 191 195 201 208 219 235 254 275 293 305 314 319 324 323 321 319 317
195 211 213 271 223 237 258 248 230 233 192 267 314 350 345 337 300 250 226 219 211 198 190 183 180 183 187 189 187 186 183 185 192 199 205 214 226 241 258 278 294 306 315 320 321 318 317 319 319
210 213 219 229 223 230 224 258 301 257 220 309 337 345 337 332 311 248 218 208 200 191 182 178 178 183 185 185 185 184 183 186 193 199 207 217 230 244 265 283 299 310 317 318 316 318 320 319 316
Wind_Speed_850mb
23 23 23 14 1 4 4 7 4 7 2 4 18 8 5 5 7 4 8 27 20 22 27 31 28 26 17 12 8 3 2 5 5 19 14 11 12 10 7 4 3 6 5 8 6 6 9 14 19
22 19 12 2 3 2 6 6 6 3 15 26 9 6 5 4 7 9 22 21 23 23 26 28 31 25 18 10 8 3 2 4 6 14 17 15 15 10 12 16 7 14 11 12 12 12 8 3 6
19 13 5 4 5 12 8 10 8 9 20 5 7 5 5 5 5 9 7 20 21 27 27 28 27 23 17 11 9 4 1 2 5 18 19 17 16 15 20 14 15 15 16 15 16 17 14 13 9
7 1 5 4 18 10 9 4 4 12 7 7 10 11 7 8 6 15 10 24 28 28 28 29 27 22 16 13 9 4 1 2 7 14 23 17 13 11 6 6 6 9 12 13 14 14 13 11 9
10 5 3 5 14 7 8 11 11 8 11 12 13 6 6 7 11 8 12 19 20 27 29 29 28 22 17 14 9 5 2 3 9 19 25 20 11 9 14 8 5 8 7 8 10 9 8 7 6
9 7 4 16 23 5 10 20 6 8 16 19 6 9 6 6 6 9 15 19 19 23 26 25 27 25 21 15 11 6 5 6 11 20 23 22 17 12 14 12 6 6 5 6 9 10 11 11 10
11 7 10 9 13 9 9 13 10 15 10 14 8 4 4 4 6 8 15 19 20 24 25 24 25 25 22 15 12 8 8 9 13 17 19 20 19 14 12 10 7 5 3 5 7 8 9 9 9
11 6 9 11 18 19 7 11 13 13 9 7 8 7 4 3 5 6 14 21 22 24 26 23 22 24 24 19 16 9 9 11 14 13 12 14 17 18 15 11 9 7 5 1 2 6 7 10 15
13 4 13 16 16 11 3 3 4 6 10 8 5 13 6 6 9 12 15 23 28 27 26 28 26 24 24 23 19 14 11 11 11 9 7 9 14 16 16 14 12 8 4 3 5 8 12 16 20
10 8 16 12 14 8 9 9 11 7 15 21 30 18 17 16 17 20 21 22 26 28 31 31 31 27 26 27 25 19 16 15 12 9 9 9 15 17 16 14 11 8 7 9 10 12 18 19 22
7 14 7 7 11 6 7 15 16 13 13 22 23 28 20 20 22 24 27 27 22 18 26 30 32 32 27 28 28 25 21 19 16 14 13 12 13 15 14 12 10 9 9 8 12 17 21 25 29
6 15 15 14 23 16 9 15 13 18 26 22 22 27 32 29 26 29 29 30 23 19 19 21 28 33 30 28 31 27 24 21 18 17 16 15 13 13 12 12 10 7 6 12 17 20 26 31 29
6 5 11 13 16 22 25 33 33 35 45 46 45 48 46 41 35 32 30 29 29 28 23 25 26 30 34 33 34 31 27 23 20 20 21 17 15 13 13 12 6 9 10 16 23 25 28 32 35
4 9 15 20 25 28 29 43 25 46 45 56 53 51 47 39 38 39 40 36 36 34 32 33 32 34 36 37 36 32 29 26 22 22 22 19 16 13 13 12 9 11 16 21 23 27 33 38 38
7 10 16 20 21 16 15 26 29 67 59 62 66 66 67 57 44 48 45 43 37 36 38 42 44 41 42 42 38 35 33 28 22 20 21 21 17 16 15 12 12 15 16 19 27 33 37 37 32
4 5 6 5 8 17 24 26 15 4 29 51 65 71 65 67 62 53 50 54 45 41 42 46 51 49 47 49 43 39 34 32 27 25 23 24 19 17 16 15 14 12 15 24 31 34 35 32 27
6 7 10 11 9 5 24 12 10 32 23 28 38 48 55 53 59 61 56 55 55 50 52 50 50 49 48 52 47 40 38 34 33 29 28 25 18 18 17 16 11 12 18 25 29 31 29 26 23
8 7 9 10 5 7 22 35 31 40 47 48 45 52 47 47 49 48 51 50 45 47 48 48 45 44 49 55 49 45 42 40 39 33 32 28 19 13 17 15 10 12 17 22 24 26 29 31 31
2 8 15 10 19 23 26 41 35 42 35 40 45 51 57 65 58 53 52 48 46 42 44 52 51 50 54 60 57 51 48 46 44 41 37 30 24 19 20 12 7 11 17 22 25 27 30 33 37
21 30 34 22 15 19 24 53 34 34 45 54 56 53 57 64 61 61 58 56 49 42 48 51 53 52 58 60 62 51 48 49 47 48 42 33 27 26 19 9 7 13 20 25 27 30 34 38 41
26 32 31 35 19 27 31 50 35 36 61 62 67 73 75 70 77 71 67 54 52 51 49 52 52 56 60 62 62 48 47 51 52 49 42 37 34 27 17 9 9 14 20 26 31 33 34 35 37
30 15 22 26 13 15 4 20 15 13 20 18 35 52 61 68 80 79 71 61 50 51 51 51 51 55 58 61 53 51 50 53 51 48 44 42 37 27 18 11 9 14 21 27 32 36 37 37 34
11 11 14 17 19 16 27 14 13 5 9 18 20 48 60 64 69 74 76 62 52 54 57 55 51 55 59 55 49 56 45 52 49 53 50 48 38 28 18 11 11 16 22 27 33 35 36 36 36
3 6 12 5 11 20 21 21 34 14 15 8 14 41 51 56 56 57 62 67 59 57 58 55 54 56 62 57 52 53 45 52 56 57 56 47 36 26 17 12 13 18 23 29 33 35 36 37 36
13 5 6 10 14 17 15 22 38 20 37 31 34 44 41 39 46 45 53 66 62 60 64 61 57 59 68 60 58 51 47 54 54 59 56 46 35 25 17 16 16 20 26 31 33 35 36 35 36
19 18 10 10 10 9 6 16 15 21 35 49 38 50 52 56 48 39 44 61 62 64 67 65 60 62 69 67 63 49 50 52 53 55 50 40 30 22 19 18 19 23 28 32 35 36 36 37 37
8 21 22 11 22 10 8 15 18 25 24 9 19 34 50 55 53 48 38 56 63 68 70 67 62 64 69 68 56 55 55 52 56 55 46 36 27 22 20 20 22 26 30 33 36 37 37 37 38
14 2 6 9 10 12 12 15 22 15 13 9 11 24 54 56 47 47 44 48 63 71 71 64 60 66 67 61 57 55 54 55 56 50 41 33 26 23 20 21 24 28 32 35 37 37 37 37 40
16 11 11 5 7 7 9 12 10 24 10 7 10 34 54 66 48 46 51 48 61 73 71 66 65 69 65 62 58 58 59 57 52 44 37 30 25 22 21 22 26 29 33 36 37 37 38 40 44
32 26 33 17 12 9 6 26 20 17 6 8 22 38 57 62 41 40 56 55 62 69 68 70 73 69 65 59 57 57 58 55 48 41 34 29 25 21 21 24 26 30 34 36 37 37 41 46 49
Wind_Direction_850mb
298 311 324 320 29 56 250 261 281 305 280 271 297 213 220 185 195 218 197 160 154 163 170 158 160 171 181 185 168 152 11 5 69 137 140 134 135 189 192 203 50 21 4 4 30 172 201 202 210
296 310 327 68 129 220 257 251 227 245 302 301 275 240 240 232 236 293 152 161 155 165 172 157 164 173 186 190 181 177 331 3 87 136 160 106 109 86 101 105 52 41 39 51 59 73 70 130 203
296 311 304 112 149 217 214 210 201 292 341 303 293 241 266 284 219 214 193 171 168 164 175 170 171 181 186 191 192 203 322 71 135 130 130 116 105 104 104 75 43 30 42 56 64 73 77 81 90
251 231 90 192 227 236 216 223 228 335 329 352 331 283 263 243 190 172 177 183 172 169 175 180 177 182 186 180 184 200 215 134 155 145 133 129 130 128 118 10 11 13 30 46 53 60 68 72 73
202 156 178 232 247 249 246 257 284 301 297 287 330 278 258 257 232 214 195 179 177 179 176 182 181 189 188 180 187 189 171 161 157 150 141 133 138 176 165 213 326 352 19 35 45 45 51 51 44
151 137 160 234 242 245 256 253 254 254 280 286 240 261 256 269 245 217 174 177 182 189 183 183 183 187 187 191 187 187 171 147 146 156 155 154 162 163 172 190 251 314 343 13 18 18 27 29 26
150 139 203 221 251 266 245 265 237 247 264 265 224 235 264 305 210 190 190 184 184 189 194 188 187 189 193 196 198 193 177 153 140 150 166 175 178 181 165 186 225 262 298 343 21 40 33 22 350
172 154 167 217 235 261 238 221 246 217 270 261 201 228 248 77 228 235 208 197 194 195 198 199 200 196 201 207 210 209 192 170 149 151 167 187 197 197 197 201 216 223 239 263 47 32 332 321 316
169 159 221 220 179 220 222 163 204 351 280 316 278 275 261 255 269 238 224 218 208 206 204 208 212 208 212 213 213 214 198 193 166 177 182 193 199 197 197 208 204 218 222 232 281 309 311 311 312
187 194 220 194 186 217 257 258 272 306 284 289 303 295 285 281 266 258 245 232 234 227 221 215 220 221 220 222 215 218 211 208 212 215 216 211 195 194 194 202 211 215 231 262 282 307 313 315 313
204 240 192 197 190 218 276 282 265 246 258 256 287 285 302 290 264 250 250 239 252 248 242 233 231 229 229 230 223 223 218 217 223 225 225 205 190 196 206 214 213 226 257 274 295 306 309 311 315
225 255 246 241 258 268 230 257 268 244 244 267 247 289 296 302 277 262 254 242 243 243 255 250 243 238 235 232 228 228 225 223 227 225 212 203 201 202 201 212 211 222 272 292 295 299 306 312 315
224 271 264 261 269 264 266 247 251 253 258 260 267 277 283 283 272 267 265 245 241 247 256 260 256 246 235 235 227 223 222 221 229 214 205 208 210 216 218 201 210 244 276 293 301 305 306 308 307
228 269 272 282 266 258 255 261 247 255 257 259 260 263 267 273 265 267 256 253 257 265 265 266 261 256 240 234 228 221 217 215 220 211 210 212 208 212 211 229 232 270 293 297 303 306 308 308 310
265 292 288 241 238 243 265 263 241 253 248 249 251 256 260 261 262 261 256 256 263 262 270 266 262 260 241 231 223 216 209 214 215 210 205 204 213 230 222 219 255 281 291 305 310 312 312 311 314
255 236 262 278 227 240 201 256 246 160 252 246 251 251 252 255 254 257 257 254 259 260 268 263 257 253 234 223 218 215 211 216 212 209 201 210 217 217 222 235 253 274 301 312 313 312 310 314 321
224 256 232 311 207 258 206 272 262 260 275 258 258 254 255 255 249 248 252 256 256 256 263 258 254 241 222 213 215 211 213 217 205 207 207 212 216 225 220 240 245 287 314 317 319 321 323 334 345
198 225 241 216 324 346 287 277 282 274 275 281 283 280 269 262 256 254 254 262 263 256 255 249 243 225 212 209 204 211 206 210 201 202 204 209 206 223 213 219 254 303 327 334 337 340 343 348 352
318 265 260 290 298 320 278 279 275 275 266 268 271 273 275 271 268 260 254 260 263 262 257 254 235 220 210 204 200 206 204 202 194 197 198 199 198 211 201 221 270 326 343 351 358 354 349 347 352
252 265 270 277 255 274 293 286 276 267 261 255 257 258 262 267 265 261 255 257 260 264 260 244 228 217 207 206 202 199 205 198 199 194 188 192 194 195 201 221 295 332 352 358 356 354 353 354 356
243 253 266 272 297 278 288 280 270 253 251 250 249 250 250 250 260 258 255 254 253 258 253 228 219 213 205 205 193 191 197 191 189 186 185 181 194 194 201 232 294 338 351 350 352 353 354 357 355
252 203 238 257 267 266 166 290 263 271 266 257 259 248 248 249 254 253 255 251 247 247 233 221 214 210 210 203 194 205 200 200 198 198 187 194 187 196 206 239 298 331 340 347 349 350 348 350 352
246 186 212 231 242 272 245 261 291 312 273 270 251 251 247 251 252 250 247 240 240 235 224 215 212 211 207 203 202 203 213 201 196 189 194 189 189 196 213 245 292 320 335 341 345 344 343 344 344
124 305 275 228 232 246 231 211 275 252 254 279 278 268 261 252 249 257 248 234 235 224 214 210 211 208 203 205 204 205 207 194 190 192 189 188 192 201 220 252 286 314 329 337 338 337 339 338 337
176 190 252 224 212 242 192 196 249 293 293 259 277 277 278 280 268 261 244 228 221 214 208 206 207 206 199 201 205 197 197 194 195 194 191 192 196 207 228 256 286 311 324 330 332 333 333 332 330
189 187 221 245 233 241 177 227 251 229 254 251 273 286 287 285 270 262 243 223 214 207 204 202 203 200 194 198 198 196 195 196 197 194 193 195 201 216 239 262 288 308 319 324 327 329 329 328 327
181 211 235 260 263 265 236 265 276 258 267 306 312 328 316 297 273 256 253 220 212 204 201 200 195 190 190 193 193 195 195 198 193 191 194 201 210 228 247 268 292 306 315 320 324 326 325 324 322
198 39 175 195 241 240 238 248 240 287 229 308 316 336 341 325 275 251 248 223 210 203 197 191 189 182 189 188 192 188 188 189 191 195 201 208 219 235 254 275 293 305 314 319 324 323 321 319 317
195 211 213 271 223 237 258 248 230 233 192 267 314 350 345 337 300 250 226 219 211 198 190 183 180 183 187 189 187 186 183 185 192 199 205 214 226 241 258 278 294 306 315 320 321 318 317 319 319
210 213 219 229 223 230 224 258 301 257 220 309 337 345 337 332 311 248 218 208 200 191 182 178 178 183 185 185 185 184 183 186 193 199 207 217 230 244 265 283 299 310 317 318 316 318 320 319 316